When you browse on this site, cookies collect data to enhance your experience and personalize the content and advertising you see.
Visit our Privacy Policy to learn more. By continuing to use the site, you agree to this use of cookies and data.
  • en Suisse
  • Liste des pays
  • À 7 jours
  • Température de l'eau
  • Carte satellitaire
  • Carte météo
  • Widgets météo
  • user-avatar
    Se connecter

    Météo par heure à Osh

    Ce jour, 17 Juin, Lundi

    Heure Température Précipitation Vent Pression Humidité
    00:00 +19°C° 0 mm 2 m/s 656 mmHg 39%
    01:00 +19°C° 0 mm 2 m/s 655 mmHg 40%
    02:00 +18°C° 0 mm 2 m/s 655 mmHg 41%
    03:00 +18°C° 0 mm 2 m/s 655 mmHg 42%
    04:00 +18°C° 0 mm 1 m/s 655 mmHg 43%
    05:00 +18°C° 0 mm 1 m/s 655 mmHg 45%
    06:00 +20°C° 0 mm 1 m/s 655 mmHg 39%
    07:00 +22°C° 0 mm 1 m/s 656 mmHg 34%
    08:00 +24°C° 0 mm 1 m/s 656 mmHg 29%
    09:00 +25°C° 0 mm 1 m/s 656 mmHg 28%
    10:00 +26°C° 0 mm 2 m/s 656 mmHg 27%
    11:00 +27°C° 0 mm 2 m/s 656 mmHg 26%
    12:00 +27°C° 0 mm 2 m/s 656 mmHg 26%
    13:00 +28°C° 0 mm 2 m/s 656 mmHg 26%
    14:00 +29°C° 0 mm 2 m/s 656 mmHg 26%
    15:00 +29°C° 0 mm 2 m/s 656 mmHg 25%
    16:00 +29°C° 0 mm 2 m/s 656 mmHg 24%
    17:00 +29°C° 0 mm 2 m/s 656 mmHg 24%
    18:00 +27°C° 0 mm 2 m/s 655 mmHg 28%
    19:00 +25°C° 0 mm 2 m/s 655 mmHg 32%
    20:00 +23°C° 0 mm 2 m/s 655 mmHg 36%
    21:00 +21°C° 0 mm 2 m/s 655 mmHg 37%
    22:00 +21°C° 0 mm 2 m/s 655 mmHg 38%
    23:00 +20°C° 0 mm 2 m/s 655 mmHg 39%

    Demain, 18 Juin, Mardi

    Heure Température Précipitation Vent Pression Humidité
    00:00 +19°C° 0 mm 2 m/s 654 mmHg 39%
    01:00 +20°C° 0 mm 1 m/s 654 mmHg 40%
    02:00 +19°C° 0 mm 1 m/s 653 mmHg 40%
    03:00 +19°C° 0 mm 1 m/s 654 mmHg 41%
    04:00 +18°C° 0 mm 1 m/s 654 mmHg 42%
    05:00 +18°C° 0 mm 1 m/s 654 mmHg 43%
    06:00 +20°C° 0 mm 1 m/s 654 mmHg 39%
    07:00 +22°C° 0 mm 1 m/s 655 mmHg 34%
    08:00 +24°C° 0 mm 1 m/s 655 mmHg 29%
    09:00 +25°C° 0 mm 2 m/s 655 mmHg 29%
    10:00 +26°C° 0 mm 2 m/s 655 mmHg 29%
    11:00 +26°C° 0 mm 2 m/s 655 mmHg 29%
    12:00 +27°C° 0.1 mm 2 m/s 655 mmHg 28%
    13:00 +28°C° 0.1 mm 2 m/s 655 mmHg 27%
    14:00 +28°C° 0.1 mm 2 m/s 655 mmHg 26%
    15:00 +29°C° 0.1 mm 2 m/s 655 mmHg 26%
    16:00 +29°C° 0.1 mm 2 m/s 655 mmHg 26%
    17:00 +29°C° 0.1 mm 2 m/s 655 mmHg 25%
    18:00 +27°C° 0 mm 3 m/s 655 mmHg 29%
    19:00 +25°C° 0 mm 3 m/s 655 mmHg 33%
    20:00 +22°C° 0 mm 4 m/s 655 mmHg 37%
    21:00 +22°C° 0 mm 3 m/s 655 mmHg 37%
    22:00 +21°C° 0 mm 2 m/s 655 mmHg 37%
    23:00 +21°C° 0 mm 2 m/s 655 mmHg 37%

    Après-demain, 19 Juin, Mercredi

    Heure Température Précipitation Vent Pression Humidité
    00:00 +20°C° 0 mm 2 m/s 655 mmHg 38%
    01:00 +21°C° 0 mm 1 m/s 654 mmHg 39%
    02:00 +20°C° 0 mm 1 m/s 654 mmHg 40%
    03:00 +20°C° 0 mm 1 m/s 654 mmHg 40%
    04:00 +20°C° 0 mm 1 m/s 654 mmHg 40%
    05:00 +19°C° 0 mm 2 m/s 654 mmHg 40%
    06:00 +21°C° 0 mm 1 m/s 654 mmHg 36%
    07:00 +23°C° 0 mm 1 m/s 655 mmHg 32%
    08:00 +25°C° 0 mm 1 m/s 655 mmHg 28%
    09:00 +26°C° 0 mm 1 m/s 655 mmHg 28%
    10:00 +27°C° 0 mm 2 m/s 655 mmHg 27%
    11:00 +27°C° 0 mm 2 m/s 655 mmHg 26%
    12:00 +28°C° 0 mm 3 m/s 655 mmHg 26%
    13:00 +28°C° 0 mm 3 m/s 654 mmHg 26%
    14:00 +29°C° 0 mm 3 m/s 654 mmHg 26%
    15:00 +29°C° 0 mm 3 m/s 654 mmHg 26%
    16:00 +28°C° 0 mm 3 m/s 655 mmHg 26%
    17:00 +28°C° 0 mm 4 m/s 655 mmHg 27%
    18:00 +27°C° 0 mm 4 m/s 655 mmHg 30%
    19:00 +25°C° 0 mm 4 m/s 655 mmHg 33%
    20:00 +23°C° 0 mm 4 m/s 655 mmHg 36%
    21:00 +22°C° 0 mm 3 m/s 655 mmHg 38%
    22:00 +21°C° 0 mm 2 m/s 655 mmHg 40%
    23:00 +20°C° 0 mm 2 m/s 655 mmHg 42%

    20 Juin, Jeudi

    Heure Température Précipitation Vent Pression Humidité
    00:00 +20°C° 0 mm 2 m/s 655 mmHg 42%
    01:00 +20°C° 0 mm 2 m/s 655 mmHg 41%
    02:00 +20°C° 0 mm 2 m/s 655 mmHg 41%
    03:00 +19°C° 0 mm 2 m/s 655 mmHg 43%
    04:00 +20°C° 0 mm 1 m/s 655 mmHg 45%
    05:00 +19°C° 0 mm 1 m/s 655 mmHg 47%
    06:00 +21°C° 0 mm 1 m/s 655 mmHg 42%
    07:00 +23°C° 0 mm 1 m/s 655 mmHg 38%
    08:00 +25°C° 0 mm 1 m/s 656 mmHg 33%
    09:00 +26°C° 0.1 mm 1 m/s 656 mmHg 32%
    10:00 +27°C° 0.1 mm 2 m/s 656 mmHg 31%
    11:00 +28°C° 0.1 mm 2 m/s 656 mmHg 29%
    12:00 +28°C° 0.1 mm 2 m/s 656 mmHg 28%
    13:00 +29°C° 0.1 mm 2 m/s 655 mmHg 27%
    14:00 +30°C° 0.1 mm 2 m/s 655 mmHg 25%
    15:00 +30°C° 0 mm 2 m/s 655 mmHg 24%
    16:00 +30°C° 0 mm 2 m/s 655 mmHg 24%
    17:00 +30°C° 0 mm 2 m/s 655 mmHg 23%
    18:00 +28°C° 0 mm 1 m/s 655 mmHg 27%
    19:00 +26°C° 0 mm 1 m/s 655 mmHg 30%
    20:00 +24°C° 0 mm 1 m/s 655 mmHg 34%
    21:00 +23°C° 0 mm 1 m/s 655 mmHg 35%
    22:00 +23°C° 0 mm 2 m/s 655 mmHg 36%
    23:00 +21°C° 0 mm 2 m/s 655 mmHg 37%

    21 Juin, Vendredi

    Heure Température Précipitation Vent Pression Humidité
    00:00 +21°C° 0 mm 2 m/s 655 mmHg 37%
    01:00 +20°C° 0 mm 2 m/s 655 mmHg 36%
    02:00 +20°C° 0 mm 2 m/s 654 mmHg 36%
    03:00 +19°C° 0 mm 2 m/s 654 mmHg 36%
    04:00 +20°C° 0 mm 1 m/s 654 mmHg 37%
    05:00 +20°C° 0 mm 1 m/s 654 mmHg 38%
    06:00 +22°C° 0 mm 1 m/s 655 mmHg 33%
    07:00 +24°C° 0 mm 1 m/s 655 mmHg 29%
    08:00 +27°C° 0 mm 1 m/s 656 mmHg 25%
    09:00 +28°C° 0 mm 1 m/s 656 mmHg 24%
    10:00 +28°C° 0 mm 1 m/s 656 mmHg 23%
    11:00 +29°C° 0 mm 2 m/s 656 mmHg 22%
    12:00 +30°C° 0 mm 2 m/s 656 mmHg 22%
    13:00 +31°C° 0 mm 2 m/s 656 mmHg 21%
    14:00 +31°C° 0 mm 2 m/s 655 mmHg 21%
    15:00 +31°C° 0 mm 2 m/s 655 mmHg 21%
    16:00 +31°C° 0 mm 2 m/s 655 mmHg 21%
    17:00 +31°C° 0 mm 2 m/s 655 mmHg 20%
    18:00 +30°C° 0 mm 3 m/s 655 mmHg 23%
    19:00 +28°C° 0 mm 3 m/s 655 mmHg 26%
    20:00 +26°C° 0 mm 3 m/s 655 mmHg 29%
    21:00 +25°C° 0 mm 3 m/s 655 mmHg 30%
    22:00 +24°C° 0 mm 3 m/s 655 mmHg 31%
    23:00 +24°C° 0 mm 2 m/s 655 mmHg 32%

    22 Juin, Samedi

    Heure Température Précipitation Vent Pression Humidité
    00:00 +23°C° 0 mm 2 m/s 654 mmHg 32%
    01:00 +23°C° 0 mm 2 m/s 654 mmHg 32%
    02:00 +21°C° 0 mm 2 m/s 654 mmHg 33%
    03:00 +21°C° 0 mm 2 m/s 654 mmHg 33%
    04:00 +21°C° 0 mm 2 m/s 654 mmHg 34%
    05:00 +20°C° 0 mm 2 m/s 654 mmHg 35%
    06:00 +24°C° 0 mm 2 m/s 655 mmHg 31%
    07:00 +26°C° 0 mm 1 m/s 655 mmHg 27%
    08:00 +28°C° 0 mm 1 m/s 656 mmHg 23%
    09:00 +29°C° 0 mm 2 m/s 656 mmHg 22%
    10:00 +30°C° 0 mm 2 m/s 656 mmHg 22%
    11:00 +30°C° 0 mm 2 m/s 656 mmHg 22%
    12:00 +31°C° 0 mm 3 m/s 656 mmHg 21%
    13:00 +33°C° 0 mm 3 m/s 656 mmHg 21%
    14:00 +33°C° 0 mm 3 m/s 656 mmHg 20%
    15:00 +33°C° 0 mm 3 m/s 656 mmHg 20%
    16:00 +33°C° 0 mm 3 m/s 656 mmHg 20%
    17:00 +32°C° 0 mm 2 m/s 656 mmHg 20%
    18:00 +30°C° 0 mm 3 m/s 656 mmHg 23%
    19:00 +28°C° 0 mm 3 m/s 656 mmHg 25%
    20:00 +26°C° 0 mm 3 m/s 656 mmHg 28%
    21:00 +26°C° 0 mm 3 m/s 656 mmHg 29%
    22:00 +25°C° 0 mm 2 m/s 656 mmHg 30%
    23:00 +25°C° 0 mm 2 m/s 656 mmHg 31%
    Voir plus